| time (UTC) | temp F | wind direction | speed MPH | gust MPH | rain 1hr in | rain 24hr in | rain mn in | humidity % | barometer mb |
| 20260502213306 | 66 | 161 | 5.0 | 10.0 | 0.00 | 0.00 | 0.00 | 21 | 1011.3 |
| 20260502212305 | 66 | 174 | 7.0 | 21.0 | 0.00 | 0.00 | 0.00 | 22 | 1011.4 |
| 20260502211804 | 66 | 288 | 2.0 | 10.0 | 0.00 | 0.00 | 0.00 | 16 | 1017.4 |
| 20260502210805 | 66 | 165 | 6.0 | 16.0 | 0.00 | 0.00 | 0.00 | 19 | 1020.0 |
| 20260502210305 | 65 | 181 | 3.0 | 13.0 | 0.00 | 0.00 | 0.00 | 20 | 1011.5 |
| 20260502205805 | 59 | 96 | 4.0 | 13.0 | 0.00 | 0.00 | 0.00 | 19 | 1011.7 |
| 20260502205305 | 59 | 186 | 3.0 | 14.0 | 0.00 | 0.00 | 0.00 | 22 | 1011.6 |
| 20260502204305 | 59 | 209 | 4.0 | 12.0 | 0.00 | 0.00 | 0.00 | 21 | 1011.8 |
| 20260502203805 | 59 | 348 | 2.0 | 14.0 | 0.00 | 0.00 | 0.00 | 20 | 1016.3 |
| 20260502203304 | 59 | 171 | 7.0 | 16.0 | 0.00 | 0.00 | 0.00 | 20 | 1011.8 |
| 20260502202805 | 60 | 170 | 6.0 | 16.0 | 0.00 | 0.00 | 0.00 | 22 | 1011.8 |
| 20260502202305 | 59 | 92 | 5.0 | 15.0 | 0.00 | 0.00 | 0.00 | 21 | 1021.3 |
| 20260502201805 | 59 | 182 | 3.0 | 14.0 | 0.00 | 0.00 | 0.00 | 21 | 1011.9 |
| 20260502201305 | 59 | 289 | 3.0 | 15.0 | 0.00 | 0.00 | 0.00 | 19 | 1017.8 |
| 20260502195805 | 63 | 212 | 5.0 | 13.0 | 0.00 | 0.00 | 0.00 | 20 | 1012.0 |
| 20260502194304 | 62 | 163 | 7.0 | 16.0 | 0.00 | 0.00 | 0.00 | 18 | 1012.1 |
| 20260502193805 | 63 | 163 | 5.0 | 16.0 | 0.00 | 0.00 | 0.00 | 21 | 1012.1 |
| 20260502193305 | 62 | 168 | 4.0 | 13.0 | 0.00 | 0.00 | 0.00 | 20 | 1012.3 |
| 20260502192805 | 62 | 190 | 5.0 | 17.0 | 0.00 | 0.00 | 0.00 | 22 | 1012.2 |
| 20260502192305 | 63 | 199 | 5.0 | 13.0 | 0.00 | 0.00 | 0.00 | 22 | 1012.2 |
| 20260502191805 | 62 | 161 | 6.0 | 14.0 | 0.00 | 0.00 | 0.00 | 20 | 1021.5 |
| 20260502191305 | 62 | 169 | 8.0 | 16.0 | 0.00 | 0.00 | 0.00 | 23 | 1012.3 |
| 20260502190804 | 62 | 153 | 8.0 | 14.0 | 0.00 | 0.00 | 0.00 | 18 | 1021.9 |
| 20260502185805 | 59 | 187 | 8.0 | 16.0 | 0.00 | 0.00 | 0.00 | 22 | 1012.5 |
| 20260502185306 | 59 | 171 | 6.0 | 13.0 | 0.00 | 0.00 | 0.00 | 21 | 1012.4 |
| 20260502184805 | 59 | 169 | 7.0 | 13.0 | 0.00 | 0.00 | 0.00 | 22 | 1012.7 |
| 20260502183305 | 59 | 256 | 4.0 | 14.0 | 0.00 | 0.00 | 0.00 | 22 | 1012.7 |
| 20260502182805 | 59 | 185 | 6.0 | 15.0 | 0.00 | 0.00 | 0.00 | 27 | 1012.8 |
| 20260502182305 | 59 | 157 | 9.0 | 16.0 | 0.00 | 0.00 | 0.00 | 25 | 1012.9 |
| 20260502181804 | 59 | 164 | 4.0 | 15.0 | 0.00 | 0.00 | 0.00 | 26 | 1013.2 |
| 20260502181305 | 59 | 179 | 6.0 | 14.0 | 0.00 | 0.00 | 0.00 | 25 | 1022.6 |
| 20260502180804 | 59 | 164 | 3.0 | 13.0 | 0.00 | 0.00 | 0.00 | 26 | 1013.0 |
| 20260502180305 | 59 | 158 | 6.0 | 13.0 | 0.00 | 0.00 | 0.00 | 23 | 1013.2 |
| 20260502164304 | 48 | 173 | 5.0 | 10.0 | 0.00 | 0.00 | 0.00 | 31 | 1013.8 |
| 20260502163805 | 47 | 159 | 7.0 | 13.0 | 0.00 | 0.00 | 0.00 | 41 | 1013.9 |
| 20260502163305 | 48 | 159 | 5.0 | 13.0 | 0.00 | 0.00 | 0.00 | 40 | 1013.7 |
| 20260502162804 | 47 | 152 | 7.0 | 9.0 | 0.00 | 0.00 | 0.00 | 35 | 1023.2 |
| 20260502161804 | 47 | 168 | 5.0 | 10.0 | 0.00 | 0.00 | 0.00 | 35 | 1014.0 |
| 20260502160805 | 47 | 244 | 3.0 | 12.0 | 0.00 | 0.00 | 0.00 | 35 | 1013.8 |
| 20260502160305 | 46 | 207 | 4.0 | 12.0 | 0.00 | 0.00 | 0.00 | 33 | 1013.9 |
| 20260502152305 | 41 | 199 | 3.0 | 5.0 | 0.00 | 0.00 | 0.00 | 46 | 1014.1 |
| 20260502151804 | 41 | 191 | 2.0 | 5.0 | 0.00 | 0.00 | 0.00 | 48 | 1014.0 |
| 20260502151304 | 40 | 157 | 3.0 | 6.0 | 0.00 | 0.00 | 0.00 | 48 | 1014.0 |
| 20260502150804 | 40 | 169 | 3.0 | 6.0 | 0.00 | 0.00 | 0.00 | 50 | 1014.2 |
| 20260502150304 | 39 | 178 | 3.0 | 5.0 | 0.00 | 0.00 | 0.00 | 51 | 1023.6 |
| 20260502130305 | 28 | 63 | 5.0 | 9.0 | 0.00 | 0.00 | 0.00 | 70 | 1022.0 |
| 20260502123804 | 27 | 55 | 5.0 | 8.0 | 0.00 | 0.00 | 0.00 | 71 | 1014.3 |
| 20260502123304 | 27 | 59 | 6.0 | 9.0 | 0.00 | 0.00 | 0.00 | 72 | 1014.4 |
| 20260502122804 | 27 | 70 | 5.0 | 9.0 | 0.00 | 0.00 | 0.00 | 71 | 1014.3 |
| 20260502122306 | 27 | 54 | 5.0 | 7.0 | 0.00 | 0.00 | 0.00 | 72 | 1014.3 |
| 20260502121805 | 27 | 67 | 5.0 | 8.0 | 0.00 | 0.00 | 0.00 | 72 | 1014.3 |
| 20260502121304 | 27 | 80 | 5.0 | 8.0 | 0.00 | 0.00 | 0.00 | 72 | 1025.1 |
| 20260502120804 | 27 | 43 | 4.0 | 12.0 | 0.00 | 0.00 | 0.00 | 71 | 1014.1 |
| 20260502120304 | 27 | 60 | 5.0 | 10.0 | 0.00 | 0.00 | 0.00 | 72 | 1014.3 |
| 20260502114804 | 28 | 68 | 4.0 | 6.0 | 0.00 | 0.00 | 0.00 | 71 | 1014.1 |
| 20260502113804 | 28 | 75 | 7.0 | 9.0 | 0.00 | 0.00 | 0.00 | 72 | 1014.2 |
| 20260502113305 | 28 | 69 | 3.0 | 8.0 | 0.00 | 0.00 | 0.00 | 72 | 1014.3 |
| 20260502112804 | 28 | 70 | 4.0 | 8.0 | 0.00 | 0.00 | 0.00 | 72 | 1014.1 |
| 20260502112305 | 28 | 70 | 4.0 | 8.0 | 0.00 | 0.00 | 0.00 | 72 | 1014.1 |
| 20260502111804 | 28 | 80 | 3.0 | 5.0 | 0.00 | 0.00 | 0.00 | 72 | 1014.1 |
| 20260502111304 | 28 | 102 | 4.0 | 5.0 | 0.00 | 0.00 | 0.00 | 71 | 1019.3 |
| 20260502110804 | 28 | 90 | 2.0 | 6.0 | 0.00 | 0.00 | 0.00 | 71 | 1014.0 |
| 20260502105804 | 28 | 73 | 6.0 | 9.0 | 0.00 | 0.00 | 0.00 | 71 | 1014.0 |
| 20260502105306 | 28 | 68 | 6.0 | 8.0 | 0.00 | 0.00 | 0.00 | 71 | 1014.0 |
| 20260502104804 | 28 | 61 | 5.0 | 8.0 | 0.00 | 0.00 | 0.00 | 71 | 1019.9 |
| 20260502104304 | 28 | 58 | 5.0 | 8.0 | 0.00 | 0.00 | 0.00 | 71 | 1014.1 |
| 20260502103804 | 28 | 88 | 2.0 | 8.0 | 0.00 | 0.00 | 0.00 | 71 | 1021.0 |
| 20260502103304 | 29 | 46 | 3.0 | 8.0 | 0.00 | 0.00 | 0.00 | 71 | 1014.1 |
| 20260502102804 | 29 | 56 | 3.0 | 7.0 | 0.00 | 0.00 | 0.00 | 71 | 1014.0 |
| 20260502102306 | 29 | 63 | 1.0 | 3.0 | 0.00 | 0.00 | 0.00 | 71 | 1013.9 |
| 20260502101804 | 29 | 10 | 1.0 | 5.0 | 0.00 | 0.00 | 0.00 | 71 | 1014.0 |
| 20260502101304 | 29 | 77 | 4.0 | 6.0 | 0.00 | 0.00 | 0.00 | 70 | 1024.1 |
| 20260502100805 | 30 | 63 | 3.0 | 6.0 | 0.00 | 0.00 | 0.00 | 70 | 1013.9 |
| 20260502100305 | 29 | 73 | 2.0 | 7.0 | 0.00 | 0.00 | 0.00 | 71 | 1013.9 |
| 20260502091306 | 30 | 13 | 2.0 | 5.0 | 0.00 | 0.00 | 0.00 | 72 | 1013.8 |
| 20260502070805 | 31 | 50 | 2.0 | 5.0 | 0.00 | 0.00 | 0.00 | 60 | 1020.1 |
| 20260502070306 | 31 | 56 | 2.0 | 5.0 | 0.00 | 0.00 | 0.00 | 70 | 1013.4 |
| 20260502065306 | 31 | 33 | 3.0 | 6.0 | 0.00 | 0.00 | 0.00 | 70 | 1013.5 |
| 20260502064806 | 32 | 61 | 5.0 | 7.0 | 0.00 | 0.00 | 0.00 | 70 | 1013.6 |
| 20260502064306 | 32 | 66 | 4.0 | 7.0 | 0.00 | 0.00 | 0.00 | 69 | 1013.6 |
| 20260502063806 | 32 | 58 | 5.0 | 8.0 | 0.00 | 0.00 | 0.00 | 69 | 1013.6 |
| 20260502063306 | 32 | 45 | 4.0 | 8.0 | 0.00 | 0.00 | 0.00 | 69 | 1013.4 |
| 20260502062806 | 32 | 55 | 6.0 | 8.0 | 0.00 | 0.00 | 0.00 | 69 | 1013.6 |
| 20260502062306 | 33 | 61 | 6.0 | 8.0 | 0.00 | 0.00 | 0.00 | 69 | 1013.4 |
| 20260502061806 | 32 | 68 | 5.0 | 8.0 | 0.00 | 0.00 | 0.00 | 68 | 1013.4 |
| 20260502061306 | 34 | 39 | 5.0 | 9.0 | 0.00 | 0.00 | 0.00 | 68 | 1013.5 |
| 20260502060806 | 32 | 62 | 6.0 | 9.0 | 0.00 | 0.00 | 0.00 | 68 | 1013.3 |
| 20260502060305 | 32 | 33 | 1.0 | 6.0 | 0.00 | 0.00 | 0.00 | 68 | 1013.4 |
| 20260502055806 | 33 | 53 | 3.0 | 8.0 | 0.00 | 0.00 | 0.00 | 56 | 1018.8 |
| 20260502054306 | 34 | 63 | 5.0 | 10.0 | 0.00 | 0.00 | 0.00 | 67 | 1013.4 |
| 20260502053806 | 32 | 60 | 4.0 | 8.0 | 0.00 | 0.00 | 0.00 | 68 | 1013.3 |
| 20260502053306 | 33 | 66 | 6.0 | 8.0 | 0.00 | 0.00 | 0.00 | 67 | 1013.2 |
| 20260502052805 | 33 | 62 | 5.0 | 8.0 | 0.00 | 0.00 | 0.00 | 67 | 1013.4 |
| 20260502051306 | 33 | 60 | 4.0 | 7.0 | 0.00 | 0.00 | 0.00 | 66 | 1013.2 |
| 20260502050805 | 36 | 47 | 3.0 | 8.0 | 0.00 | 0.00 | 0.00 | 65 | 1013.0 |
| 20260502050306 | 33 | 54 | 5.0 | 9.0 | 0.00 | 0.00 | 0.00 | 65 | 1013.1 |
| 20260502045805 | 35 | 56 | 3.0 | 5.0 | 0.00 | 0.00 | 0.00 | 65 | 1013.2 |
| 20260502044305 | 36 | 297 | 1.0 | 5.0 | 0.00 | 0.00 | 0.00 | 65 | 1013.0 |
| 20260502043805 | 35 | 60 | 2.0 | 5.0 | 0.00 | 0.00 | 0.00 | 64 | 1013.1 |
| 20260502043306 | 37 | 6 | 0.0 | 2.0 | 0.00 | 0.00 | 0.00 | 65 | 1013.1 |
| 20260502042805 | 35 | 81 | 0.0 | 2.0 | 0.00 | 0.00 | 0.00 | 64 | 1013.1 |
| 20260502042306 | 37 | 202 | 1.0 | 5.0 | 0.00 | 0.00 | 0.00 | 63 | 1013.0 |
| 20260502041806 | 36 | 30 | 3.0 | 5.0 | 0.00 | 0.00 | 0.00 | 61 | 1012.9 |
| 20260502041306 | 38 | 52 | 3.0 | 5.0 | 0.00 | 0.00 | 0.00 | 61 | 1012.9 |
| 20260502040805 | 37 | 29 | 2.0 | 5.0 | 0.00 | 0.00 | 0.00 | 60 | 1012.8 |
| 20260502040305 | 35 | 68 | 2.0 | 5.0 | 0.00 | 0.00 | 0.00 | 59 | 1012.7 |
| 20260502035805 | 38 | 62 | 2.0 | 6.0 | 0.00 | 0.00 | 0.00 | 60 | 1012.7 |
| 20260502035306 | 36 | 62 | 3.0 | 6.0 | 0.00 | 0.00 | 0.00 | 59 | 1012.5 |
| 20260502034306 | 36 | 65 | 5.0 | 12.0 | 0.00 | 0.00 | 0.00 | 59 | 1012.5 |
| 20260502033806 | 39 | 63 | 6.0 | 10.0 | 0.00 | 0.00 | 0.00 | 33 | 1019.8 |
| 20260502032805 | 40 | 61 | 4.0 | 7.0 | 0.00 | 0.00 | 0.00 | 55 | 1012.0 |
| 20260502032306 | 39 | 71 | 5.0 | 8.0 | 0.00 | 0.00 | 0.00 | 54 | 1012.2 |
| 20260502031806 | 40 | 75 | 5.0 | 8.0 | 0.00 | 0.00 | 0.00 | 54 | 1011.9 |
| 20260502031305 | 38 | 57 | 4.0 | 12.0 | 0.00 | 0.00 | 0.00 | 38 | 1018.1 |
| 20260502030805 | 40 | 52 | 7.0 | 13.0 | 0.00 | 0.00 | 0.00 | 56 | 1011.9 |
| 20260502030306 | 38 | 65 | 7.0 | 13.0 | 0.00 | 0.00 | 0.00 | 56 | 1011.9 |
| 20260502025805 | 48 | 67 | 7.0 | 10.0 | 0.00 | 0.02 | 0.00 | 54 | 1011.6 |
| 20260502024806 | 39 | 63 | 5.0 | 6.0 | 0.00 | 0.02 | 0.00 | 24 | 1019.3 |
| 20260502023806 | 39 | 58 | 2.0 | 5.0 | 0.00 | 0.02 | 0.00 | 51 | 1011.6 |
| 20260502023306 | 41 | 47 | 2.0 | 5.0 | 0.00 | 0.02 | 0.00 | 51 | 1011.4 |
| 20260502022805 | 43 | 74 | 3.0 | 7.0 | 0.00 | 0.02 | 0.00 | 50 | 1011.4 |
| 20260502022306 | 42 | 37 | 1.0 | 3.0 | 0.00 | 0.02 | 0.00 | 30 | 1017.5 |
| 20260502021805 | 43 | 15 | 2.0 | 6.0 | 0.00 | 0.02 | 0.00 | 49 | 1011.2 |
| 20260502021305 | 42 | 30 | 2.0 | 5.0 | 0.00 | 0.02 | 0.00 | 47 | 1011.1 |
| 20260502020305 | 43 | 49 | 2.0 | 5.0 | 0.00 | 0.02 | 0.00 | 46 | 1011.0 |
| 20260502015306 | 43 | 68 | 3.0 | 6.0 | 0.00 | 0.04 | 0.00 | 28 | 1016.7 |
| 20260502014805 | 42 | 65 | 5.0 | 6.0 | 0.00 | 0.04 | 0.00 | 43 | 1010.9 |
| 20260502014305 | 45 | 52 | 3.0 | 8.0 | 0.00 | 0.04 | 0.00 | 43 | 1010.7 |
| 20260502013805 | 45 | 38 | 4.0 | 6.0 | 0.00 | 0.04 | 0.00 | 40 | 1010.7 |
| 20260502013305 | 47 | 57 | 5.0 | 5.0 | 0.00 | 0.04 | 0.00 | 38 | 1010.6 |
| 20260502012306 | 48 | 333 | 1.0 | 5.0 | 0.00 | 0.04 | 0.00 | 37 | 1010.6 |
| 20260502011806 | 48 | 49 | 3.0 | 8.0 | 0.00 | 0.04 | 0.00 | 34 | 1010.5 |
| 20260502011305 | 48 | 25 | 5.0 | 8.0 | 0.00 | 0.04 | 0.00 | 33 | 1010.4 |
| 20260502010805 | 47 | 33 | 3.0 | 12.0 | 0.00 | 0.04 | 0.00 | 33 | 1010.4 |
| 20260502010305 | 48 | 58 | 8.0 | 12.0 | 0.00 | 0.04 | 0.00 | 32 | 1010.3 |
| 20260502005806 | 47 | 10 | 2.0 | 6.0 | 0.00 | 0.04 | 0.00 | 33 | 1010.5 |
| 20260502004806 | 50 | 47 | 3.0 | 10.0 | 0.00 | 0.04 | 0.00 | 34 | 1010.4 |
| 20260502004306 | 48 | 57 | 6.0 | 13.0 | 0.00 | 0.04 | 0.00 | 22 | 1018.6 |
| 20260502003805 | 50 | 44 | 6.0 | 13.0 | 0.00 | 0.04 | 0.00 | 32 | 1010.4 |
| 20260502003306 | 49 | 51 | 8.0 | 12.0 | 0.00 | 0.04 | 0.00 | 31 | 1010.2 |
| 20260502002805 | 51 | 73 | 5.0 | 13.0 | 0.00 | 0.04 | 0.00 | 31 | 1010.1 |
| 20260502002306 | 50 | 52 | 6.0 | 12.0 | 0.00 | 0.04 | 0.00 | 25 | 1014.7 |
| 20260502001806 | 50 | 38 | 5.0 | 13.0 | 0.00 | 0.04 | 0.00 | 30 | 1010.0 |
| 20260502001305 | 49 | 57 | 7.0 | 18.0 | 0.00 | 0.04 | 0.00 | 30 | 1010.0 |
| 20260502000305 | 50 | 78 | 5.0 | 17.0 | 0.00 | 0.04 | 0.00 | 29 | 1009.8 |
| 20260501235805 | 51 | 75 | 9.0 | 21.0 | 0.00 | 0.04 | 0.00 | 28 | 1009.7 |
| 20260501235306 | 52 | 50 | 3.0 | 21.0 | 0.00 | 0.04 | 0.00 | 26 | 1017.7 |
| 20260501234305 | 52 | 63 | 9.0 | 17.0 | 0.00 | 0.04 | 0.00 | 24 | 1009.6 |
| 20260501233805 | 51 | 44 | 4.0 | 16.0 | 0.00 | 0.04 | 0.00 | 23 | 1015.7 |
| 20260501233304 | 52 | 43 | 8.0 | 18.0 | 0.00 | 0.04 | 0.00 | 23 | 1009.7 |
| 20260501232805 | 51 | 238 | 4.0 | 21.0 | 0.00 | 0.04 | 0.00 | 23 | 1009.5 |
| 20260501232306 | 52 | 340 | 9.0 | 21.0 | 0.00 | 0.04 | 0.00 | 24 | 1009.7 |
| 20260501231805 | 51 | 58 | 5.0 | 14.0 | 0.00 | 0.04 | 0.00 | 24 | 1009.6 |
| 20260501231305 | 52 | 295 | 5.0 | 16.0 | 0.00 | 0.04 | 0.00 | 23 | 1009.5 |
| 20260501230805 | 51 | 51 | 9.0 | 16.0 | 0.00 | 0.04 | 0.00 | 24 | 1009.5 |
| 20260501230305 | 52 | 36 | 6.0 | 15.0 | 0.00 | 0.04 | 0.00 | 25 | 1009.6 |
| 20260501225805 | 58 | 64 | 6.0 | 14.0 | 0.00 | 0.04 | 0.00 | 28 | 1009.3 |
| 20260501225306 | 58 | 66 | 4.0 | 13.0 | 0.00 | 0.04 | 0.00 | 29 | 1009.4 |
| 20260501224805 | 58 | 224 | 2.0 | 7.0 | 0.00 | 0.04 | 0.00 | 31 | 1009.5 |
| 20260501224305 | 58 | 55 | 3.0 | 10.0 | 0.00 | 0.04 | 0.00 | 18 | 1015.7 |
| 20260501223805 | 59 | 53 | 6.0 | 10.0 | 0.00 | 0.04 | 0.00 | 33 | 1009.5 |
| 20260501223304 | 58 | 293 | 1.0 | 3.0 | 0.00 | 0.04 | 0.00 | 16 | 1009.5 |
| 20260501222805 | 49 | 289 | 1.0 | 5.0 | 0.00 | 0.04 | 0.00 | 35 | 1009.5 |
| 20260501222306 | 59 | 184 | 0.0 | 7.0 | 0.00 | 0.04 | 0.00 | 36 | 1009.4 |
| 20260501221805 | 59 | 174 | 3.0 | 7.0 | 0.00 | 0.05 | 0.00 | 35 | 1014.9 |
| 20260501221305 | 59 | 180 | 2.0 | 7.0 | 0.00 | 0.05 | 0.00 | 36 | 1009.4 |
| 20260501220805 | 59 | 227 | 5.0 | 13.0 | 0.00 | 0.05 | 0.00 | 36 | 1015.1 |
| 20260501215805 | 56 | 329 | 5.0 | 14.0 | 0.00 | 0.05 | 0.00 | 33 | 1015.0 |
| 20260501215306 | 56 | 159 | 5.0 | 13.0 | 0.00 | 0.05 | 0.00 | 33 | 1009.6 |
| 20260501214805 | 56 | 181 | 5.0 | 13.0 | 0.00 | 0.05 | 0.00 | 35 | 1009.6 |
| 20260501214305 | 55 | 187 | 6.0 | 17.0 | 0.00 | 0.05 | 0.00 | 36 | 1018.3 |
| 20260501213805 | 56 | 209 | 6.0 | 10.0 | 0.00 | 0.05 | 0.00 | 36 | 1009.7 |